User: anonymous   Login
Location: Newark
(41.7772°N, 74.7403°W)
Time: 07:06:55
(UTC+00:00)
Language:

deb Explorer IX - Orbit

View from above orbital plane
View from above orbital plane
View from above satellite
View from above satellite

Ground track
Ground track

The orbit data is extracted from the following two-line orbital elements,

1    85U 61004C   20143.08220510 +.00001512 +00000-0 +34624-3 0  9993
2    85 038.7701 155.5744 0385896 325.1148 032.4856 14.20542445927349
Epoch (UTC): 22 May 2020 01:58:22
Eccentricity: 0.0385896
inclination: 38.7701°
perigee height: 545 km
apogee height: 1101 km
right ascension of ascending node: 155.5744°
argument of perigee: 325.1148°
revolutions per day: 14.20542445
mean anomaly at epoch: 32.4856°
orbit number at epoch: 92734

The dashed part of the orbit path shows where the satellite is in the earth's shadow,  

DLR